Погода в Торсхавне

Дания     62°00′47″N   6°46′44″W
В апреле 2022 года жителям России запретили посещать сайт meteo.paraplan.net по решению Генеральной прокуратуры. Аудитория сайта уменьшилась в 10 раз. Владельцы сайта не видят смысла в поддержке погодного сервера в таких условиях. Сайт будет закрыт в октябре.
темп.,
°C
ветер,
м/с
пор.,
м/с
влажн.,
%
обл.,
%
осадки,
мм/ч
давл.,
гПа
погр.,
м
30 сентября, пт
пт3001:00+10ю152093100 4.4 9921041
04:00+10ююв172494100 5.3 9851294
07:00+10ююв182593100 12.5 9791114
10:00+11ююв182693100 8.8 9721303
13:00+11юв192694100 19.8 9651215
16:00+11ююв71095100 2.6 957446
19:00+10юз182292100 5.2 9641515
22:00+10ююз131689100 2.4 969790
1 октября, сб
сб101:00+10юз101491100 2.4 972651
04:00+10юз11148792 0.1 975813
07:00+10ююз111490100 0.4 976703
10:00+10юз101389100 1.1 978651
13:00+10ююз101386100 1.6 980728
16:00+10ююз912898 0.5 981571
19:00+10ююз91290100 0.9 982635
22:00+10юз101293100 1.5 983730
2 октября, вс
вс201:00+10зюз121687100 2.3 987868
04:00+10зюз14188697 0.4 9901012
07:00+10зюз13178045 0.6 9941119
10:00+10зюз14198012 0.1 9961223
13:00+10зюз14188013 0.3 9991158
16:00+10зюз13188258 0.3 10011138
19:00+10з12178126 0.4 10041121
22:00+10зюз11168949 0.1 1006791
3 октября, пн
пн301:00+11зюз10159490 0.1 1008607
04:00+11зюз9149393 0.0 1009500
07:00+11юз7128899 0.0 1010291
10:00+12юз8138195 0.0 1011301
13:00+11ююз71185100 0.0 1011262
16:00+11ю71093100 0.1 1009311
19:00+10ю71095100 0.4 1007329
22:00+10ююв81196100 4.8 1003683
4 октября, вт
вт401:00+10вюв91497100 7.1 997607
04:00+11ю81298100 2.9 991349
07:00+10ююз81198100 3.3 989314
10:00+10юз111494100 0.2 989546
13:00+10ю5794100 0.4 987381
16:00+12ю142296100 4.7 980666
19:00+12ю12209299 4.8 978765
22:00+10ю121688100 0.8 973786